Location: Montr�al
(45.5000°N, 73.5830°W)
Time: 20:01:41
(UTC-04:00)

ISS - All Passes

Search period start: 27 May 2016 00:00
Search period end: 06 June 2016 00:00
Orbit: 402 x 404 km, 51.6° (Epoch: 27 May)

Date Brightness Start Highest point End Pass type
(mag) Time Alt. Az. Time Alt. Az. Time Alt. Az.
27 May - 00:44:26 10° WNW 00:47:20 28° N 00:50:14 10° NE visible
27 May - 02:21:23 10° NW 02:24:22 32° NNE 02:27:21 10° ENE visible
27 May - 03:57:46 10° WNW 04:01:02 73° SSW 04:04:16 10° SE visible
27 May - 05:36:01 10° WSW 05:36:56 11° SW 05:37:52 10° SSW daylight
27 May - 22:14:34 10° SW 22:17:47 65° SSE 22:21:02 10° ENE visible
27 May - 23:51:25 10° W 23:54:25 33° NNW 23:57:26 10° NE visible
28 May - 01:28:34 10° NW 01:31:26 28° N 01:34:20 10° ENE visible
28 May - 03:05:01 10° WNW 03:08:17 69° NNE 03:11:32 10° ESE visible
28 May - 04:42:00 10° W 04:44:26 20° SW 04:46:52 10° S daylight
28 May - 21:22:06 10° SSW 21:25:07 36° SE 21:28:10 10° ENE visible
28 May - 22:58:23 10° W 23:01:33 44° NNW 23:04:42 10° NE visible
29 May - 00:35:40 10° WNW 00:38:31 26° N 00:41:20 10° ENE visible
29 May - 02:12:17 10° NW 02:15:27 45° NNE 02:18:36 10° E visible
29 May - 03:48:51 10° WNW 03:51:51 34° SW 03:54:50 10° SSE visible
29 May - 20:30:00 10° S 20:32:32 21° SE 20:35:04 10° E daylight
29 May - 22:05:27 10° WSW 22:08:42 65° NNW 22:11:58 10° ENE visible
29 May - 23:42:41 10° WNW 23:45:34 27° N 23:48:26 10° NE visible
30 May - 01:19:33 10° NW 01:22:35 34° NNE 01:25:36 10° E visible
30 May - 02:55:57 10° WNW 02:59:11 61° SSW 03:02:24 10° SE visible
30 May - 19:38:45 10° SSE 19:39:59 12° SE 19:41:15 10° ESE daylight
30 May - 21:12:41 10° SW 21:15:56 77° SSE 21:19:13 10° ENE visible
30 May - 22:49:38 10° WNW 22:52:37 31° NNW 22:55:36 10° NE visible
31 May - 00:26:45 10° NW 00:29:40 29° N 00:32:34 10° ENE visible
31 May - 02:03:09 10° WNW 02:06:27 79° NNE 02:09:42 10° ESE visible
31 May - 03:40:22 10° W 03:42:31 17° SW 03:44:40 10° S visible
31 May - 20:20:07 10° SW 20:23:15 43° SE 20:26:22 10° ENE daylight
31 May - 21:56:37 10° W 21:59:43 40° NNW 22:02:50 10° NE visible
31 May - 23:33:52 10° WNW 23:36:43 26° N 23:39:33 10° ENE visible
01 Jun - 01:10:26 10° NW 01:13:37 51° NNE 01:16:49 10° E visible
01 Jun - 02:47:05 10° WNW 02:49:57 29° SW 02:52:49 10° SSE visible
01 Jun - 19:27:53 10° SSW 19:30:36 24° SE 19:33:20 10° E daylight
01 Jun - 21:03:38 10° WSW 21:06:52 57° NNW 21:10:06 10° ENE daylight
01 Jun - 22:40:54 10° WNW 22:43:45 27° N 22:46:36 10° ENE visible
02 Jun - 00:17:40 10° NW 00:20:46 37° NNE 00:23:49 10° E visible
02 Jun - 01:54:07 10° WNW 01:57:18 51° SW 02:00:29 10° SE visible
02 Jun - 18:36:15 10° SSE 18:38:04 14° SE 18:39:51 10° E daylight
02 Jun - 20:10:48 10° WSW 20:14:04 89° SSE 20:17:21 10° ENE daylight
02 Jun - 21:47:51 10° WNW 21:50:48 30° N 21:53:45 10° NE visible
02 Jun - 23:24:54 10° NW 23:27:50 30° N 23:30:47 10° ENE visible
03 Jun - 01:01:18 10° WNW 01:04:34 89° WSW 01:07:50 10° ESE visible
03 Jun - 02:38:48 10° W 02:40:35 14° SW 02:42:22 10° SSW night (unlit)
03 Jun - 19:18:09 10° SW 19:21:20 51° SE 19:24:32 10° ENE daylight
03 Jun - 20:54:48 10° W 20:57:53 37° NNW 21:00:58 10° NE daylight
03 Jun - 22:32:02 10° WNW 22:34:53 27° N 22:37:44 10° ENE visible
04 Jun - 00:08:32 10° WNW 00:11:46 57° NNE 00:15:00 10° ESE visible
04 Jun - 01:45:18 10° W 01:48:01 24° SW 01:50:44 10° SSE visible
04 Jun - 18:25:48 10° SSW 18:28:40 29° SE 18:31:33 10° ENE daylight
04 Jun - 20:01:48 10° W 20:05:00 51° NNW 20:08:13 10° NE daylight
04 Jun - 21:39:04 10° WNW 21:41:55 26° N 21:44:46 10° ENE visible
04 Jun - 23:15:47 10° NW 23:18:54 40° NNE 23:22:01 10° E visible
05 Jun - 00:52:16 10° WNW 00:55:23 43° SW 00:58:30 10° SE visible
05 Jun - 17:33:55 10° S 17:36:05 17° SE 17:38:15 10° E daylight
05 Jun - 19:08:54 10° WSW 19:12:10 79° NNW 19:15:27 10° ENE daylight
05 Jun - 20:46:02 10° WNW 20:48:57 29° N 20:51:52 10° NE daylight
05 Jun - 22:23:00 10° NW 22:26:00 31° NNE 22:28:58 10° ENE visible
